• In Portugal
  • List of Countries
  • For 7 days
  • Water Temperature
  • Satellite Maps
  • Weather Map
  • Weather Widgets
  • user-avatar
    Login

    Hourly Weather Sacapa

    Today, 19 July, Thursday

    Time Temperature Precipitation Wind Pressure Humidity
    00:00 +22°C° 0 mm 1 mps 698 mmHg 95%
    01:00 +22°C° 0.1 mm 1 mps 698 mmHg 95%
    02:00 +22°C° 0.1 mm 1 mps 698 mmHg 95%
    03:00 +22°C° 0.1 mm 1 mps 697 mmHg 95%
    04:00 +22°C° 0 mm 1 mps 697 mmHg 95%
    05:00 +22°C° 0 mm 1 mps 697 mmHg 95%
    06:00 +21°C° 0 mm 1 mps 697 mmHg 95%
    07:00 +23°C° 0 mm 1 mps 698 mmHg 87%
    08:00 +25°C° 0 mm 1 mps 698 mmHg 79%
    09:00 +27°C° 0 mm 1 mps 699 mmHg 71%
    10:00 +29°C° 0 mm 1 mps 698 mmHg 62%
    11:00 +31°C° 0 mm 2 mps 698 mmHg 52%
    12:00 +32°C° 0 mm 2 mps 698 mmHg 43%
    13:00 +32°C° 0 mm 2 mps 698 mmHg 44%
    14:00 +32°C° 0 mm 2 mps 697 mmHg 44%
    15:00 +32°C° 0 mm 2 mps 697 mmHg 45%
    16:00 +30°C° 0.4 mm 2 mps 697 mmHg 55%
    17:00 +28°C° 0.4 mm 2 mps 696 mmHg 65%
    18:00 +27°C° 0.4 mm 2 mps 696 mmHg 75%
    19:00 +25°C° 0.8 mm 1 mps 696 mmHg 82%
    20:00 +24°C° 0.8 mm 1 mps 697 mmHg 88%
    21:00 +22°C° 0.8 mm 1 mps 697 mmHg 95%
    22:00 +22°C° 0.1 mm 1 mps 697 mmHg 95%
    23:00 +22°C° 0.1 mm 1 mps 697 mmHg 96%

    Tomorrow, 20 July, Friday

    Time Temperature Precipitation Wind Pressure Humidity
    00:00 +22°C° 0.1 mm 1 mps 698 mmHg 96%
    01:00 +22°C° 0 mm 1 mps 697 mmHg 96%
    02:00 +22°C° 0 mm 1 mps 697 mmHg 97%
    03:00 +19°C° 0 mm 0 mps 697 mmHg 97%
    04:00 +21°C° 0 mm 1 mps 697 mmHg 96%
    05:00 +21°C° 0 mm 1 mps 697 mmHg 96%
    06:00 +21°C° 0 mm 1 mps 697 mmHg 95%
    07:00 +23°C° 0 mm 1 mps 698 mmHg 86%
    08:00 +26°C° 0 mm 1 mps 698 mmHg 76%
    09:00 +28°C° 0 mm 1 mps 699 mmHg 66%
    10:00 +29°C° 0 mm 1 mps 698 mmHg 57%
    11:00 +31°C° 0 mm 2 mps 698 mmHg 48%
    12:00 +34°C° 0 mm 2 mps 698 mmHg 39%
    13:00 +34°C° 0 mm 3 mps 698 mmHg 39%
    14:00 +34°C° 0 mm 3 mps 697 mmHg 40%
    15:00 +34°C° 0 mm 3 mps 697 mmHg 40%
    16:00 +31°C° 0.1 mm 3 mps 697 mmHg 49%
    17:00 +29°C° 0.1 mm 2 mps 696 mmHg 57%
    18:00 +27°C° 0.1 mm 2 mps 696 mmHg 66%
    19:00 +25°C° 0.2 mm 2 mps 697 mmHg 74%
    20:00 +24°C° 0.2 mm 1 mps 697 mmHg 82%
    21:00 +22°C° 0.2 mm 1 mps 698 mmHg 91%
    22:00 +22°C° 0.1 mm 1 mps 698 mmHg 92%
    23:00 +22°C° 0.1 mm 1 mps 698 mmHg 93%

    Day after tomorrow, 21 July, Saturday

    Time Temperature Precipitation Wind Pressure Humidity
    00:00 +21°C° 0.1 mm 1 mps 698 mmHg 94%
    01:00 +21°C° 0.1 mm 1 mps 697 mmHg 94%
    02:00 +21°C° 0.1 mm 1 mps 697 mmHg 94%
    03:00 +21°C° 0.1 mm 1 mps 697 mmHg 94%
    04:00 +21°C° 0 mm 1 mps 697 mmHg 93%
    05:00 +21°C° 0 mm 1 mps 697 mmHg 93%
    06:00 +21°C° 0 mm 1 mps 697 mmHg 92%
    07:00 +23°C° 0 mm 1 mps 697 mmHg 85%
    08:00 +25°C° 0 mm 1 mps 698 mmHg 77%
    09:00 +27°C° 0 mm 1 mps 698 mmHg 69%
    10:00 +29°C° 0 mm 1 mps 698 mmHg 63%
    11:00 +30°C° 0 mm 2 mps 698 mmHg 56%
    12:00 +31°C° 0 mm 2 mps 698 mmHg 50%
    13:00 +31°C° 0.4 mm 2 mps 697 mmHg 53%
    14:00 +31°C° 0.4 mm 2 mps 697 mmHg 57%
    15:00 +31°C° 0.4 mm 2 mps 696 mmHg 60%
    16:00 +29°C° 1.3 mm 2 mps 696 mmHg 68%
    17:00 +27°C° 1.3 mm 2 mps 696 mmHg 75%
    18:00 +25°C° 1.3 mm 2 mps 696 mmHg 83%
    19:00 +24°C° 1.2 mm 2 mps 697 mmHg 87%
    20:00 +23°C° 1.2 mm 1 mps 697 mmHg 91%
    21:00 +22°C° 1.2 mm 1 mps 698 mmHg 95%
    22:00 +22°C° 0.4 mm 1 mps 698 mmHg 95%
    23:00 +22°C° 0.4 mm 1 mps 698 mmHg 95%

    22 July, Sunday

    Time Temperature Precipitation Wind Pressure Humidity
    00:00 +22°C° 0.4 mm 1 mps 698 mmHg 96%
    01:00 +22°C° 0.1 mm 1 mps 697 mmHg 96%
    02:00 +22°C° 0.1 mm 1 mps 697 mmHg 95%
    03:00 +22°C° 0.1 mm 1 mps 697 mmHg 95%
    04:00 +22°C° 0 mm 1 mps 697 mmHg 95%
    05:00 +22°C° 0 mm 1 mps 697 mmHg 95%
    06:00 +22°C° 0 mm 1 mps 697 mmHg 95%
    07:00 +23°C° 0 mm 1 mps 698 mmHg 88%
    08:00 +25°C° 0 mm 1 mps 698 mmHg 81%
    09:00 +26°C° 0 mm 1 mps 699 mmHg 74%
    10:00 +28°C° 0 mm 2 mps 699 mmHg 66%
    11:00 +30°C° 0 mm 2 mps 699 mmHg 58%
    12:00 +31°C° 0 mm 2 mps 698 mmHg 50%
    13:00 +31°C° 0.1 mm 2 mps 698 mmHg 51%
    14:00 +31°C° 0.1 mm 3 mps 697 mmHg 52%
    15:00 +31°C° 0.1 mm 3 mps 696 mmHg 53%
    16:00 +29°C° 0.6 mm 2 mps 696 mmHg 62%
    17:00 +27°C° 0.6 mm 2 mps 697 mmHg 71%
    18:00 +25°C° 0.6 mm 2 mps 697 mmHg 80%
    19:00 +24°C° 0.5 mm 1 mps 697 mmHg 85%
    20:00 +23°C° 0.5 mm 1 mps 697 mmHg 90%
    21:00 +22°C° 0.5 mm 1 mps 698 mmHg 95%
    22:00 +22°C° 0.2 mm 1 mps 698 mmHg 95%
    23:00 +22°C° 0.2 mm 1 mps 698 mmHg 96%

    23 July, Monday

    Time Temperature Precipitation Wind Pressure Humidity
    00:00 +22°C° 0.2 mm 1 mps 698 mmHg 96%
    01:00 +22°C° 0 mm 1 mps 697 mmHg 96%
    02:00 +22°C° 0 mm 1 mps 697 mmHg 96%
    03:00 +21°C° 0 mm 1 mps 696 mmHg 96%
    04:00 +21°C° 0 mm 1 mps 697 mmHg 95%
    05:00 +21°C° 0 mm 1 mps 697 mmHg 94%
    06:00 +21°C° 0 mm 1 mps 697 mmHg 93%
    07:00 +23°C° 0 mm 1 mps 698 mmHg 86%
    08:00 +25°C° 0 mm 1 mps 698 mmHg 79%
    09:00 +26°C° 0 mm 1 mps 699 mmHg 72%
    10:00 +28°C° 0 mm 1 mps 699 mmHg 63%
    11:00 +30°C° 0 mm 2 mps 698 mmHg 53%
    12:00 +32°C° 0 mm 2 mps 698 mmHg 44%
    13:00 +32°C° 0 mm 2 mps 698 mmHg 44%
    14:00 +32°C° 0 mm 2 mps 697 mmHg 45%
    15:00 +31°C° 0 mm 3 mps 696 mmHg 46%
    16:00 +30°C° 0.5 mm 2 mps 697 mmHg 53%
    17:00 +28°C° 0.5 mm 2 mps 697 mmHg 61%
    18:00 +27°C° 0.5 mm 2 mps 697 mmHg 68%
    19:00 +25°C° 0.7 mm 1 mps 697 mmHg 76%
    20:00 +24°C° 0.7 mm 1 mps 698 mmHg 84%
    21:00 +22°C° 0.7 mm 1 mps 698 mmHg 91%
    22:00 +22°C° 0.3 mm 1 mps 698 mmHg 93%
    23:00 +22°C° 0.3 mm 1 mps 698 mmHg 94%

    24 July, Tuesday

    Time Temperature Precipitation Wind Pressure Humidity
    00:00 +21°C° 0.3 mm 1 mps 698 mmHg 95%
    01:00 +21°C° 0.1 mm 1 mps 698 mmHg 95%
    02:00 +21°C° 0.1 mm 1 mps 697 mmHg 95%
    03:00 +19°C° 0.1 mm 0 mps 697 mmHg 95%
    04:00 +19°C° 0 mm 0 mps 697 mmHg 94%
    05:00 +19°C° 0 mm 0 mps 697 mmHg 94%
    06:00 +19°C° 0 mm 0 mps 698 mmHg 93%
    07:00 +21°C° 0 mm 0 mps 698 mmHg 84%
    08:00 +26°C° 0 mm 1 mps 699 mmHg 75%
    09:00 +28°C° 0 mm 1 mps 699 mmHg 66%
    10:00 +30°C° 0 mm 1 mps 699 mmHg 59%
    11:00 +31°C° 0 mm 1 mps 699 mmHg 51%
    12:00 +34°C° 0 mm 2 mps 699 mmHg 44%
    13:00 +32°C° 0 mm 2 mps 698 mmHg 45%
    14:00 +32°C° 0 mm 2 mps 698 mmHg 46%
    15:00 +31°C° 0 mm 2 mps 697 mmHg 48%
    16:00 +30°C° 0.3 mm 2 mps 697 mmHg 57%
    17:00 +28°C° 0.3 mm 1 mps 697 mmHg 66%
    18:00 +26°C° 0.3 mm 1 mps 697 mmHg 75%
    19:00 +25°C° 0.4 mm 1 mps 698 mmHg 80%
    20:00 +24°C° 0.4 mm 1 mps 698 mmHg 86%
    21:00 +23°C° 0.4 mm 1 mps 698 mmHg 92%
    22:00 +22°C° 0.2 mm 1 mps 698 mmHg 93%
    23:00 +20°C° 0.2 mm 0 mps 698 mmHg 94%
    Show more